| time (UTC) | temp F | wind direction | speed MPH | gust MPH | rain 1hr in | rain 24hr in | rain mn in | humidity % | barometer mb |
| 20260503224557 | 64 | 60 | 0.0 | 1.0 | 0.00 | 0.13 | 0.01 | 43 | 1016.5 |
| 20260503224503 | 64 | 60 | 0.0 | 1.0 | 0.00 | 0.13 | 0.01 | 41 | 1016.5 |
| 20260503223024 | 65 | 116 | 0.0 | 3.0 | 0.00 | 0.13 | 0.01 | 40 | 1016.3 |
| 20260503221524 | 67 | 343 | 0.0 | 4.0 | 0.00 | 0.13 | 0.01 | 37 | 1016.3 |
| 20260503220040 | 67 | 138 | 0.0 | 4.0 | 0.00 | 0.19 | 0.01 | 37 | 1016.2 |
| 20260503214543 | 67 | 19 | 1.0 | 4.0 | 0.00 | 0.19 | 0.01 | 38 | 1016.2 |
| 20260503213005 | 67 | 9 | 2.0 | 8.0 | 0.00 | 0.19 | 0.01 | 38 | 1016.0 |
| 20260503211604 | 67 | 271 | 0.0 | 6.0 | 0.00 | 0.19 | 0.01 | 39 | 1016.0 |
| 20260503210014 | 67 | 298 | 2.0 | 6.0 | 0.00 | 0.24 | 0.01 | 38 | 1016.2 |
| 20260503204521 | 67 | 268 | 1.0 | 5.0 | 0.00 | 0.24 | 0.01 | 40 | 1016.4 |
| 20260503203012 | 67 | 99 | 1.0 | 10.0 | 0.00 | 0.24 | 0.01 | 38 | 1016.4 |
| 20260503201514 | 67 | 292 | 2.0 | 9.0 | 0.00 | 0.24 | 0.01 | 39 | 1016.4 |
| 20260503200010 | 67 | 354 | 1.0 | 8.0 | 0.00 | 0.32 | 0.01 | 39 | 1016.4 |
| 20260503194510 | 67 | 328 | 2.0 | 7.0 | 0.00 | 0.32 | 0.01 | 38 | 1016.5 |
| 20260503193132 | 67 | 281 | 2.0 | 10.0 | 0.00 | 0.32 | 0.01 | 38 | 1016.7 |
| 20260503191529 | 67 | 304 | 1.0 | 7.0 | 0.00 | 0.32 | 0.01 | 38 | 1017.0 |
| 20260503190014 | 66 | 116 | 2.0 | 7.0 | 0.00 | 0.39 | 0.01 | 40 | 1017.2 |
| 20260503184513 | 66 | 299 | 2.0 | 10.0 | 0.00 | 0.39 | 0.01 | 37 | 1017.4 |
| 20260503183010 | 66 | 13 | 1.0 | 10.0 | 0.00 | 0.39 | 0.01 | 43 | 1017.5 |
| 20260503181543 | 66 | 351 | 3.0 | 10.0 | 0.00 | 0.39 | 0.01 | 37 | 1017.6 |
| 20260503180052 | 65 | 291 | 4.0 | 11.0 | 0.00 | 0.43 | 0.01 | 39 | 1017.8 |
| 20260503174534 | 66 | 26 | 4.0 | 10.0 | 0.00 | 0.43 | 0.01 | 42 | 1017.8 |
| 20260503173031 | 65 | 326 | 2.0 | 6.0 | 0.00 | 0.43 | 0.01 | 42 | 1017.8 |
| 20260503171542 | 66 | 311 | 2.0 | 12.0 | 0.00 | 0.43 | 0.01 | 42 | 1018.0 |
| 20260503110104 | 45 | 334 | 0.0 | 1.0 | 0.00 | 0.60 | 0.01 | 95 | 1016.6 |
| 20260503081510 | 45 | 313 | 0.0 | 0.0 | 0.00 | 0.60 | 0.00 | 94 | 1014.6 |
| 20260503054511 | 49 | 347 | 0.0 | 3.0 | 0.00 | 0.60 | 0.00 | 93 | 1013.1 |
| 20260503053046 | 50 | 304 | 0.0 | 4.0 | 0.00 | 0.60 | 0.00 | 93 | 1013.1 |
| 20260503051544 | 50 | 318 | 0.0 | 4.0 | 0.00 | 0.60 | 0.00 | 93 | 1013.0 |
| 20260503050024 | 50 | 308 | 1.0 | 4.0 | 0.00 | 0.60 | 0.00 | 93 | 1013.1 |
| 20260503043029 | 50 | 307 | 0.0 | 3.0 | 0.00 | 0.60 | 0.00 | 93 | 1012.9 |
| 20260503041525 | 50 | 310 | 0.0 | 3.0 | 0.00 | 0.60 | 0.00 | 93 | 1012.7 |
| 20260503040103 | 50 | 320 | 0.0 | 1.0 | 0.00 | 0.60 | 0.60 | 93 | 1012.5 |
| 20260503034555 | 50 | 314 | 0.0 | 2.0 | 0.00 | 0.60 | 0.60 | 93 | 1012.4 |
| 20260503033043 | 51 | 326 | 0.0 | 1.0 | 0.00 | 0.60 | 0.60 | 93 | 1012.5 |
| 20260503031545 | 51 | 330 | 0.0 | 1.0 | 0.00 | 0.60 | 0.60 | 93 | 1012.5 |
| 20260503024523 | 51 | 315 | 1.0 | 4.0 | 0.00 | 0.60 | 0.60 | 93 | 1012.3 |
| 20260503023130 | 51 | 311 | 2.0 | 6.0 | 0.00 | 0.60 | 0.60 | 93 | 1012.4 |
| 20260503021549 | 51 | 314 | 1.0 | 4.0 | 0.00 | 0.60 | 0.60 | 92 | 1012.5 |
| 20260503020047 | 51 | 319 | 1.0 | 5.0 | 0.00 | 0.60 | 0.60 | 92 | 1012.1 |
| 20260503014554 | 51 | 308 | 1.0 | 5.0 | 0.00 | 0.60 | 0.60 | 92 | 1012.0 |
| 20260503013054 | 51 | 356 | 0.0 | 3.0 | 0.00 | 0.60 | 0.60 | 92 | 1011.8 |
| 20260503011504 | 51 | 316 | 1.0 | 6.0 | 0.00 | 0.60 | 0.60 | 92 | 1011.9 |
| 20260503010105 | 51 | 308 | 2.0 | 6.0 | 0.00 | 0.60 | 0.60 | 92 | 1011.8 |
| 20260503010003 | 52 | 348 | 2.0 | 6.0 | 0.00 | 0.60 | 0.60 | 92 | 1011.8 |
| 20260503004608 | 52 | 44 | 1.0 | 8.0 | 0.00 | 0.60 | 0.60 | 92 | 1011.5 |
| 20260503003109 | 52 | 332 | 3.0 | 8.0 | 0.00 | 0.60 | 0.60 | 93 | 1011.4 |
| 20260503001600 | 52 | 314 | 2.0 | 6.0 | 0.00 | 0.60 | 0.60 | 93 | 1011.0 |
| 20260503000047 | 52 | 346 | 0.0 | 4.0 | 0.02 | 0.60 | 0.60 | 93 | 1010.8 |
| 20260502234534 | 52 | 23 | 0.0 | 5.0 | 0.04 | 0.60 | 0.60 | 92 | 1010.8 |
| 20260502233033 | 52 | 293 | 1.0 | 6.0 | 0.06 | 0.60 | 0.60 | 92 | 1010.7 |
| 20260502231601 | 53 | 345 | 2.0 | 10.0 | 0.10 | 0.60 | 0.60 | 91 | 1010.3 |
| 20260502230055 | 54 | 359 | 1.0 | 10.0 | 0.10 | 0.57 | 0.57 | 93 | 1010.1 |